[[{"header":{"parameterUnit":"m.s-1","parameterCategory":1,"la1":30.2991,"la2":30.254,"lo1":-89.0895,"lo2":-89.0444,"dy":0.0017,"dx":0.0017,"nx":28,"ny":28,"refTime":"2024-02-08T09:00:00:Z","depth":0,"parameterNumber":2,"parameterNumberName":"U-component_of_WINDS"},"data":[0,0,0,0,0,0,0,0,0,0,0,0,0,0,0,0,0,0,0,0,0,0,0,0,0,0,0,0,0,0,0,0,0,0,0,0,0,0,0,0,0,0,0,0,0,0,0,0,0,0,0,0,0,0,0,0,0,0,-2.1082,-2.1082,0,-2.1048,-2.1048,-2.1048,-2.1004,-2.1003,-2.1003,-2.1002,-2.0966,-2.0965,-2.0965,0,0,0,0,0,0,0,0,0,0,0,0,0,-2.1109,-2.1109,-2.1082,-2.1082,-2.1082,-2.1049,-2.1048,-2.1048,-2.1004,-2.1003,-2.1003,-2.1002,-2.0966,-2.0965,-2.0965,0,0,0,0,0,0,0,0,0,0,0,0,0,-2.1088,-2.1109,-2.1083,-2.1056,-2.1053,-2.1049,-2.1048,-2.1047,-2.1004,-2.1003,-2.1002,-2.1001,-2.0966,-2.0965,-2.0965,-2.0983,0,0,-2.0963,-2.0963,0,0,0,0,0,0,0,0,-2.109,-2.1088,-2.106,-2.1058,-2.1055,-2.1029,-2.1044,-2.1026,-2.1005,-2.1023,-2.1002,-2.1001,-2.0988,-2.0985,-2.0981,-2.0981,-2.098,-2.0963,-2.0963,-2.0963,-2.0963,0,0,0,0,0,0,0,-2.1091,-2.1089,-2.1069,-2.106,-2.1057,-2.1046,-2.1041,-2.104,-2.1012,-2.1021,-2.1018,-2.1015,-2.0986,-2.0982,-2.098,-2.0979,-2.0963,-2.0963,-2.0963,-2.0963,-2.0992,-2.0993,0,0,0,0,0,0,-2.1097,-2.109,-2.107,-2.1068,-2.107,-2.1046,-2.1041,-2.1039,-2.1011,-2.1006,-2.1016,-2.1013,-2.0983,-2.0981,-2.0979,-2.0997,-2.0963,-2.0963,-2.0962,-2.0991,-2.0992,-2.0993,0,0,0,0,0,0,-2.1097,-2.1095,-2.1071,-2.1078,-2.1074,-2.1047,-2.1044,-2.1039,-2.1034,-2.1007,-2.1002,-2.1017,-2.0982,-2.0979,-2.0982,-2.0995,-2.0962,-2.0962,-2.099,-2.0991,-2.0993,-2.1035,0,0,0,0,0,0,-2.1098,-2.1096,-2.1103,-2.1079,-2.1074,-2.1076,-2.1045,-2.1039,-2.1034,-2.103,-2.1007,-2.1002,-2.0981,-2.0983,-2.0982,-2.0994,-2.0961,-2.0988,-2.099,-2.0992,-2.1032,-2.1038,-2.1042,0,0,0,0,0,-2.11,-2.1115,-2.1103,-2.1101,-2.1082,-2.1077,-2.1074,-2.105,-2.1035,-2.1041,-2.1024,-2.1003,-2.0995,-2.0984,-2.0982,-2.0994,-2.0987,-2.099,-2.0992,-2.103,-2.1037,-2.1042,0,0,0,0,0,0,-2.1141,-2.1112,-2.1098,-2.1107,-2.1095,-2.107,-2.1077,-2.1058,-2.105,-2.1046,-2.1017,-2.1012,-2.1019,-2.1007,-2.0996,-2.101,-2.0988,-2.099,-2.1017,-2.1023,-2.1028,-2.103,-2.0961,0,0,0,0,0,-2.1151,-2.115,-2.1124,-2.1135,-2.1129,-2.1104,-2.1101,-2.1084,-2.107,-2.1065,-2.1048,-2.1035,-2.1029,-2.1026,-2.1019,-2.1031,-2.1025,-2.1039,-2.1044,-2.1048,-2.105,-2.1054,-2.106,-2.1001,-2.1001,-2.1001,0,0,-2.1172,-2.1156,-2.1157,-2.1143,-2.1131,-2.113,-2.11,-2.11,-2.1099,-2.1064,-2.1066,-2.1053,-2.1037,-2.1044,-2.1047,-2.1035,-2.1065,-2.1051,-2.1055,-2.1054,-2.1057,-2.1063,-2.1068,-2.1003,-2.1003,-2.1002,0,0,-2.1209,-2.1197,-2.1204,-2.1194,-2.1177,-2.1161,-2.1163,-2.1141,-2.1131,-2.1132,-2.1106,-2.1105,-2.1096,-2.1085,-2.1078,-2.1113,-2.1092,-2.1112,-2.1138,-2.1143,-2.1147,-2.1151,-2.1162,-2.1166,-2.1114,-2.1114,-2.1114,0,-2.1236,-2.1234,-2.121,-2.1211,-2.1206,-2.1176,-2.1182,-2.1173,-2.1156,-2.1152,-2.1139,-2.1128,-2.1115,-2.1119,-2.1127,-2.1124,-2.1124,-2.1113,-2.1149,-2.1152,-2.1155,-2.1166,-2.117,-2.1116,-2.1116,-2.1116,-2.1115,0,-2.1268,-2.1267,-2.1274,-2.1258,-2.1254,-2.1258,-2.1234,-2.1233,-2.1217,-2.1201,-2.1203,-2.1187,-2.1176,-2.1176,-2.116,-2.1178,-2.1171,-2.1154,-2.1131,-2.1164,-2.1173,-2.1176,-2.1119,-2.1119,-2.1118,-2.1117,0,0,-2.1328,-2.13,-2.1303,-2.1295,-2.1276,-2.1274,-2.1277,-2.1267,-2.1266,-2.1255,-2.1256,-2.125,-2.1234,-2.1227,-2.121,-2.1214,-2.1241,-2.1197,-2.1196,-2.1204,-2.1259,-2.127,-2.1275,-2.1229,-2.1229,-2.123,-2.126,0,-2.136,-2.1363,-2.1342,-2.1351,-2.1349,-2.1322,-2.1324,-2.1312,-2.1299,-2.1295,-2.1279,-2.1275,-2.1255,-2.1251,-2.1254,-2.1237,-2.1252,-2.1235,-2.1228,-2.1228,-2.1231,-2.128,-2.1292,-2.1321,-2.1263,-2.1264,-2.1264,0,-2.1397,-2.1389,-2.1397,-2.1378,-2.1376,-2.1379,-2.1368,-2.1365,-2.1351,-2.1341,-2.1334,-2.1314,-2.1315,-2.1295,-2.1295,-2.1285,-2.1281,-2.1272,-2.1273,-2.127,-2.1247,-2.1277,-2.1329,-2.1333,-2.127,-2.1269,-2.1269,0,-2.1438,-2.1429,-2.1433,-2.1428,-2.1405,-2.1407,-2.1398,-2.1383,-2.1379,-2.137,-2.1367,-2.1358,-2.1353,-2.1346,-2.1325,-2.1312,-2.1327,-2.1305,-2.1318,-2.1318,-2.132,-2.132,-2.1372,-2.1321,-2.1321,-2.1321,-2.1321,0,-2.1474,-2.148,-2.1451,-2.1453,-2.1459,-2.1436,-2.1442,-2.143,-2.1417,-2.1416,-2.1393,-2.1392,-2.1365,-2.1361,-2.1345,-2.1347,-2.1346,-2.1336,-2.1331,-2.1337,-2.1338,-2.1333,-2.133,-2.1322,-2.1322,-2.1322,-2.1322,0,-2.152,-2.1501,-2.1503,-2.1482,-2.1477,-2.1482,-2.1464,-2.1465,-2.1451,-2.145,-2.1448,-2.1425,-2.142,-2.1399,-2.1388,-2.1377,-2.1384,-2.1376,-2.1389,-2.1385,-2.1398,-2.1397,-2.1446,-2.1451,-2.14,-2.14,-2.1401,0,-2.1544,-2.1548,-2.1528,-2.1526,-2.1517,-2.1515,-2.151,-2.1488,-2.1484,-2.1469,-2.1472,-2.1465,-2.1457,-2.145,-2.1432,-2.1424,-2.1414,-2.1432,-2.1412,-2.1418,-2.1412,-2.1412,-2.1411,-2.1436,-2.1436,-2.1437,-2.1437,0,-2.1587,-2.1578,-2.1573,-2.1565,-2.156,-2.1553,-2.1543,-2.1543,-2.1518,-2.1515,-2.151,-2.1504,-2.1494,-2.1487,-2.1476,-2.1465,-2.1447,-2.1444,-2.1446,-2.1451,-2.1458,-2.1453,-2.1398,-2.1443,-2.1442,-2.1442,-2.1441,-2.1441,-2.1621,-2.1623,-2.161,-2.1605,-2.1596,-2.1588,-2.1588,-2.1574,-2.1569,-2.1559,-2.1547,-2.1543,-2.1529,-2.1512,-2.1504,-2.15,-2.149,-2.1493,-2.1493,-2.1494,-2.1497,-2.1461,-2.1498,-2.1498,-2.1498,-2.1497,-2.1497,0,-2.1662,-2.1652,-2.1648,-2.1637,-2.1633,-2.1618,-2.1607,-2.1604,-2.1601,-2.1591,-2.1585,-2.1578,-2.1572,-2.1554,-2.1545,-2.1545,-2.1537,-2.1544,-2.1542,-2.154,-2.1507,-2.1505,-2.1551,-2.1551,-2.1551,-2.1551,-2.1551,-2.1551,-2.1683,-2.1685,-2.1675,-2.1673,-2.1663,-2.1659,-2.1654,-2.1647,-2.1638,-2.1632,-2.1627,-2.1616,-2.1602,-2.1592,-2.1585,-2.158,-2.1577,-2.1587,-2.1579,-2.1548,-2.1543,-2.1538,-2.1536,-2.1587,-2.1587,-2.1612,-2.1612,-2.1612]},{"header":{"parameterUnit":"m.s-1","parameterCategory":1,"la1":30.2991,"la2":30.254,"lo1":-89.0895,"lo2":-89.0444,"dy":0.0017,"dx":0.0017,"nx":28,"ny":28,"refTime":"2024-02-08T09:00:00:Z","depth":0,"parameterNumber":3,"parameterNumberName":"V-component_of_WINDS"},"data":[0,0,0,0,0,0,0,0,0,0,0,0,0,0,0,0,0,0,0,0,0,0,0,0,0,0,0,0,0,0,0,0,0,0,0,0,0,0,0,0,0,0,0,0,0,0,0,0,0,0,0,0,0,0,0,0,0,0,0.7507,0.7507,0,0.7596,0.7597,0.7598,0.768,0.7681,0.7681,0.7682,0.7776,0.7778,0.7779,0,0,0,0,0,0,0,0,0,0,0,0,0,0.7409,0.741,0.7506,0.7508,0.7509,0.7596,0.7597,0.7598,0.7679,0.7681,0.7682,0.7683,0.7776,0.7778,0.7779,0,0,0,0,0,0,0,0,0,0,0,0,0,0.747,0.7411,0.7506,0.756,0.7565,0.7596,0.7597,0.7599,0.7679,0.7681,0.7682,0.7683,0.7775,0.7777,0.778,0.7765,0,0,0.7787,0.7788,0,0,0,0,0,0,0,0,0.7466,0.7474,0.7551,0.7556,0.7562,0.7628,0.7597,0.7655,0.7679,0.7636,0.7682,0.7684,0.7726,0.7732,0.7746,0.777,0.7774,0.7787,0.7789,0.779,0.779,0,0,0,0,0,0,0,0.7462,0.747,0.7542,0.7552,0.7559,0.758,0.759,0.7608,0.7672,0.764,0.7646,0.7655,0.7729,0.7744,0.7749,0.7775,0.7787,0.7789,0.7791,0.7792,0.7795,0.7794,0,0,0,0,0,0,0.7449,0.7466,0.7539,0.7545,0.7517,0.7581,0.7592,0.7606,0.7672,0.7683,0.7654,0.7659,0.7739,0.7746,0.7752,0.7743,0.779,0.7792,0.7793,0.7797,0.7795,0.7794,0,0,0,0,0,0,0.7447,0.7455,0.7536,0.7507,0.7519,0.7581,0.7595,0.7607,0.7621,0.7682,0.7694,0.7657,0.774,0.7749,0.7762,0.7747,0.7793,0.7795,0.7798,0.7796,0.7794,0.7722,0,0,0,0,0,0,0.7444,0.7454,0.7448,0.7506,0.752,0.7543,0.7594,0.7607,0.7625,0.7632,0.7688,0.7699,0.7742,0.7758,0.7765,0.7751,0.7797,0.78,0.7797,0.7795,0.7726,0.7717,0.771,0,0,0,0,0,0.744,0.7424,0.7447,0.7456,0.7514,0.7541,0.755,0.7599,0.7623,0.7619,0.7659,0.7697,0.7747,0.7759,0.7767,0.7754,0.7801,0.7798,0.7795,0.7729,0.7719,0.771,0,0,0,0,0,0,0.7362,0.7432,0.7459,0.7461,0.7495,0.7555,0.7551,0.7586,0.7614,0.762,0.768,0.7692,0.7699,0.7728,0.7739,0.7745,0.778,0.7778,0.7727,0.7718,0.771,0.7704,0.7799,0,0,0,0,0,0.7345,0.736,0.7421,0.7417,0.7433,0.7488,0.7502,0.7537,0.7575,0.759,0.7631,0.7666,0.7691,0.7705,0.7731,0.7729,0.7745,0.7725,0.7717,0.771,0.7709,0.7714,0.7707,0.7784,0.7784,0.7784,0,0,0.731,0.7351,0.7357,0.7403,0.7433,0.7449,0.75,0.7514,0.7528,0.7592,0.7608,0.7639,0.7683,0.769,0.7695,0.7714,0.7691,0.7706,0.7701,0.7703,0.771,0.7703,0.7696,0.7782,0.7782,0.7782,0,0,0.7256,0.7287,0.7288,0.7318,0.7363,0.74,0.74,0.7456,0.7479,0.7495,0.7545,0.7562,0.7601,0.7632,0.7652,0.7611,0.7648,0.7617,0.7578,0.7582,0.7576,0.7571,0.7559,0.7553,0.7615,0.7615,0.7615,0,0.7208,0.7233,0.7285,0.7297,0.7317,0.7375,0.7379,0.7405,0.7456,0.7469,0.7489,0.7541,0.7575,0.7591,0.7581,0.7594,0.7599,0.7612,0.7572,0.7568,0.7564,0.7553,0.7548,0.7611,0.7611,0.7612,0.7612,0,0.7173,0.719,0.7186,0.7234,0.7253,0.726,0.7314,0.7328,0.7361,0.7397,0.7414,0.7457,0.7493,0.7499,0.7531,0.752,0.7531,0.756,0.7597,0.7552,0.7543,0.7539,0.7606,0.7607,0.7608,0.7609,0,0,0.7074,0.715,0.7148,0.7172,0.7226,0.7241,0.7252,0.7287,0.7299,0.7332,0.7344,0.7377,0.7405,0.7428,0.7465,0.7468,0.7436,0.7498,0.75,0.7487,0.743,0.7409,0.7404,0.746,0.746,0.7459,0.7427,0,0.7031,0.7053,0.71,0.7108,0.7126,0.7182,0.7192,0.7227,0.7261,0.7282,0.732,0.7344,0.7377,0.7392,0.7398,0.7439,0.7426,0.7441,0.7475,0.7476,0.7465,0.7399,0.7377,0.7344,0.7424,0.7423,0.7423,0,0.6984,0.7014,0.7024,0.7079,0.7088,0.7096,0.7134,0.7152,0.7194,0.7219,0.7245,0.7285,0.7302,0.7333,0.7358,0.7368,0.7384,0.7407,0.7407,0.7414,0.7448,0.7407,0.7335,0.7331,0.7417,0.7418,0.7418,0,0.6914,0.6957,0.6969,0.6987,0.7051,0.7056,0.7083,0.7126,0.7145,0.7177,0.7191,0.7224,0.7244,0.727,0.732,0.7337,0.734,0.7375,0.7364,0.7362,0.7363,0.7363,0.7296,0.7369,0.7369,0.7369,0.7369,0,0.6863,0.6868,0.6939,0.6947,0.6954,0.7009,0.7015,0.7047,0.7085,0.7102,0.7152,0.7166,0.7229,0.7252,0.729,0.7307,0.7315,0.7337,0.7348,0.7334,0.7332,0.7348,0.7352,0.7368,0.7368,0.7369,0.7369,0,0.6788,0.6835,0.6853,0.6912,0.6927,0.693,0.6981,0.6992,0.7028,0.7049,0.7057,0.7115,0.7144,0.7195,0.7239,0.7265,0.7275,0.7292,0.7261,0.7268,0.7255,0.7256,0.7197,0.7194,0.7266,0.7265,0.7265,0,0.6754,0.6759,0.6818,0.6832,0.6857,0.6879,0.6899,0.6952,0.6971,0.702,0.7025,0.7058,0.7088,0.7132,0.7179,0.7214,0.7233,0.721,0.7239,0.7226,0.7236,0.7237,0.7239,0.7204,0.7203,0.7202,0.7202,0,0.6689,0.6712,0.6738,0.6772,0.6794,0.6824,0.6856,0.6865,0.6927,0.6945,0.6976,0.6998,0.7043,0.7076,0.7118,0.7147,0.7186,0.7192,0.7192,0.7179,0.7162,0.7174,0.7246,0.7194,0.7194,0.7195,0.7195,0.7196,0.6635,0.6643,0.6687,0.6714,0.6744,0.6773,0.6787,0.6825,0.6851,0.6891,0.6922,0.695,0.6994,0.7054,0.7081,0.7106,0.7123,0.7122,0.7122,0.7121,0.7117,0.7156,0.7113,0.7113,0.7113,0.7114,0.7114,0,0.6576,0.6606,0.6631,0.6675,0.6697,0.6729,0.6767,0.6784,0.6808,0.6845,0.6873,0.6909,0.6941,0.6991,0.7028,0.7038,0.7057,0.7047,0.7048,0.7055,0.7098,0.7096,0.7031,0.7031,0.7031,0.7031,0.7031,0.7031,0.6548,0.6564,0.6592,0.6624,0.6655,0.6683,0.6702,0.673,0.676,0.6798,0.6825,0.6856,0.69,0.694,0.6972,0.6986,0.6999,0.6983,0.7003,0.7043,0.7051,0.7059,0.7057,0.6985,0.6985,0.6958,0.6958,0.6958]}]]